Regional Weather Roundup
Issued by NWS

Home | Current Version | Previous Version | Text Only | Print | Product List | Glossary On
Versions: 1 2 3 4 5 6 7 8 9 10 11 12 13 14 15 16 17 18 19 20 21 22 23 24 25 26 27 28 29 30 31 32 33 34 35 36 37 38 39 40 41 42 43 44 45 46 47 48 49 50
000
ASUS45 KPSR 302210
RWRAZ

ARIZONA REGIONAL HOURLY WEATHER ROUNDUP
NATIONAL WEATHER SERVICE PHOENIX AZ
300 PM MST WED JUL 30 2014

NOTE: FAIR INDICATES FEW OR NO CLOUDS BELOW 12,000 FEET WITH NO
SIGNIFICANT WEATHER AND/OR OBSTRUCTIONS TO VISIBILITY.

AZZ001>003-036-302300-
NORTHWEST ARIZONA

CITY           SKY/WX    TMP DP  RH WIND       PRES   REMARKS
BULLHEAD CITY  SUNNY    109  50  14 N16       29.78F HX 106
KINGMAN        MOSUNNY   97  49  19 W5        30.03F
$$

AZZ004>008-015-016-018-302300-
NORTH CENTRAL ARIZONA

CITY           SKY/WX    TMP DP  RH WIND       PRES   REMARKS
GRAND CANYON   SUNNY     85  44  23 W10       30.27F
WILLIAMS       MOSUNNY   81  46  30 SW12      30.36F
PRESCOTT       MOSUNNY   91  44  19 VRB6      30.16F
FLAGSTAFF      MOSUNNY   81  40  23 W8G22     30.32F
PAYSON         MOSUNNY   90  45  20 W10G22    30.18F
PAGE           SUNNY     95  48  20 SE7       30.06F
$$

AZZ009>014-017-302300-
NORTHEAST ARIZONA

CITY           SKY/WX    TMP DP  RH WIND       PRES   REMARKS
WINSLOW        SUNNY     95  43  16 W6G20     30.11F
SAINT JOHNS    MOSUNNY   90  44  20 NW10      30.17F
WINDOW ROCK    MOSUNNY   86  45  23 W13G18    30.27F
SHOW LOW       MOSUNNY   84  45  24 SW10G17   30.27F
$$

AZZ023-302300-
GREATER PHOENIX AREA

CITY           SKY/WX    TMP DP  RH WIND       PRES   REMARKS
PHOENIX        PTSUNNY  110  51  14 W14       29.81F HX 107
BUCKEYE          N/A    108  52  15 S9        29.82F HX 105
GLENDALE       MOSUNNY  109  48  13 S10G20    29.83  HX 106
LUKE AFB       NOT AVBL
DEER VALLEY    SUNNY    105  50  15 VRB7G17   29.84F HX 102
SCOTTSDALE     SUNNY    108  49  14 W10       29.86F HX 104
MESA-FALCON    MOSUNNY  109  54  16 SW12      29.84F HX 108
MESA-GATEWAY   MOSUNNY  106  54  17 W3        29.86F HX 104
CHANDLER       PTSUNNY  108  52  15 S9        29.84F HX 105
$$

AZZ027-028-302300-
SOUTHWEST MARICOPA COUNTY AND PINAL COUNTY

CITY           SKY/WX    TMP DP  RH WIND       PRES   REMARKS
CASA GRANDE    SUNNY    106  54  17 W7        29.86F HX 104
GILA BEND      PTCLDY   109  46  12 S6G15     29.81F HX 105
$$

AZZ503-504-507>509-302300-
SOUTHEAST ARIZONA

CITY           SKY/WX    TMP DP  RH WIND       PRES   REMARKS
TUCSON         PTSUNNY  102  51  18 E3        29.97F
DAVIS-MONTHAN  SUNNY    100  54  21 NW5       29.96F
RYAN FIELD       N/A    100  54  20 W9        29.96F
NOGALES        TSTM      73  61  65 SE12G25   30.13R
SIERRA VISTA   PTSUNNY   84  54  34 W15G22    30.15F
DOUGLAS        MOSUNNY   94  55  26 NW10G17   30.09F
SAFFORD        MOSUNNY  101  48  16 W15       29.95F
$$

AZZ020-021-025-026-031-302300-
SOUTHWEST ARIZONA

CITY           SKY/WX    TMP DP  RH WIND       PRES   REMARKS
YUMA           MOSUNNY  113  46  10 S7        29.76F HX 108
$$

CAZ031-033-041-043-047-048-061-302300-
SOUTHERN CALIFORNIA

CITY           SKY/WX    TMP DP  RH WIND       PRES   REMARKS
DOWNTOWN L.A.  MOSUNNY   84  62  47 VRB5      29.92S
L.A. AIRPORT   PTSUNNY   76  61  59 W13       29.94S
SAN DIEGO      MOSUNNY   79  63  57 NW9       29.95F
BURBANK        SUNNY     92  55  28 S9        29.92F
ONTARIO        MOSUNNY   97  55  24 W12G18    29.92F
RIVERSIDE      PTSUNNY   96  58  27 W14       29.91F
PALM SPRINGS   SUNNY    113  45  10 NW14G21   29.80F HX 108
EL CENTRO NAS  MOSUNNY  112  48  12 VRB7      29.74F HX 108
IMPERIAL       MOSUNNY  112  50  13 MISG      29.73F HX 109
BLYTHE           N/A    N/A N/A N/A MISG      29.76F
NEEDLES        SUNNY    111  52  14 MISG      29.80F HX 108
$$

NVZ020-UTZ003-302300-
SOUTHERN NEVADA-UTAH

CITY           SKY/WX    TMP DP  RH WIND       PRES   REMARKS
LAS VEGAS      MOSUNNY  105  46  13 NW10G18   29.89F HX 101
SALT LAKE CITY PTSUNNY   79  57  46 CALM      30.18F
$$

NMZ009-TXZ055-302300-
NEW MEXICO-WEST TEXAS

CITY           SKY/WX    TMP DP  RH WIND       PRES   REMARKS
ALBUQUERQUE    MOSUNNY   88  52  29 SE3       30.15F
EL PASO        MOSUNNY   99  51  19 W10       30.01F
$$


........................KEY........................
SKY/WX - SKY CONDITION/WEATHER
TMP    - TEMPERATURE IN FAHRENHEIT
DP     - DEW POINT IN FAHRENHEIT
RH     - RELATIVE HUMIDITY IN PERCENT
WIND   - DIRECTION AND SPEED IN MILES PER HOUR (MPH)
VRB    - VARIABLE WIND DIRECTION
PRES   - MEAN SEA LEVEL PRESSURE IN INCHES OF MERCURY
         F - FALLING PRESSURE   R - RISING PRESSURE
         S - STEADY PRESSURE
VSB    - VISIBILITY IN MILES
HX     - HEAT INDEX IN FAHRENHEIT
WCI    - WIND CHILL INDEX IN FAHRENHEIT
TC     - TEMPERATURE IN CELSIUS WHICH IS ALSO KNOWN AS
         TEMPERATURE IN CENTIGRADE
AFB    - AIR FORCE BASE
         LUKE AFB IS LUKE AIR FORCE BASE
         DAVIS-MONTHAN IS DAVIS-MONTHAN AIR FORCE BASE
NAS    - NAVAL AIR STATION
         EL CENTRO NAS IS EL CENTRO NAVAL AIR STATION
N/A    - NOT AVAILABLE


USA.gov is the U.S. government's official web portal to all federal, state and local government web resources and services.